カタログに戻る

LEMUR 2 ARIANNA

運用中科学SSO
NORAD 62699·PAYLOAD·🇺🇸 United States

打ち上げ Jan 14, 2025 から Vandenberg Space Force Base

Loading…

次のパス (今後24時間)

TLE

最新Source: Space-Track

元期: Sep 14, 2026, 03:59 UTC

1 62699U 25009CU  26257.16620650  .00005612  00000-0  41525-3 0  9990
2 62699  97.6839 337.8623 0002887 148.9829 211.1568 15.03563449 90928

AllMySatでLEMUR 2 ARIANNAをリアルタイム追跡

Download on the App Store